DW4326 Weather Reports


time (UTC)temp
F
wind
direction
speed
knots
gust
knots
rain 1hr
in
rain 24hr
in
rain mn
in
humidity
%
barometer
mb
20260831041419 61 298 0.0 0.0 0.00 0.02 0.00 96 1018.2
20260831035918 61 298 0.0 0.0 0.00 0.02 0.02 97 1018.1
20260831035112 61 298 0.0 0.0 0.00 0.02 0.02 96 1018.0
20260831032913 61 298 0.0 0.0 0.00 0.02 0.02 96 1018.0
20260831031413 61 298 0.0 0.0 0.00 0.02 0.02 97 1018.0
20260831031328 61 298 0.0 0.0 0.00 0.02 0.02 96 1018.1
20260831024408 61 298 0.0 0.0 0.00 0.02 0.02 96 1017.9
20260831022905 61 298 0.0 0.0 0.00 0.02 0.02 96 1018.0
20260831021400 62 298 0.0 0.0 0.00 0.02 0.02 96 1017.9
20260831015900 61 298 0.0 0.0 0.00 0.02 0.02 96 1018.0
20260831014357 62 298 0.0 0.0 0.00 0.02 0.02 95 1017.9
20260831012856 62 298 0.0 0.0 0.00 0.02 0.02 95 1017.4
20260831012048 62 298 0.0 0.0 0.00 0.02 0.02 95 1016.9
20260831005852 63 298 0.0 0.0 0.00 0.02 0.02 95 1017.1
20260831004351 63 298 0.0 0.0 0.00 0.02 0.02 95 1016.7
20260831002849 63 298 0.0 0.0 0.01 0.02 0.02 94 1016.7
20260831001349 64 298 0.0 0.0 0.02 0.02 0.02 94 1016.4
20260830235849 64 298 0.0 0.0 0.02 0.02 0.02 93 1016.2
20260830234346 65 294 0.0 0.0 0.02 0.02 0.02 93 1016.0
20260830232846 65 355 0.0 0.0 0.01 0.01 0.01 91 1016.0
20260830232037 66 355 0.9 5.2 0.00 0.00 0.00 90 1015.6
20260830225844 67 337 0.0 0.0 0.00 0.00 0.00 89 1015.8
20260830225049 67 23 0.0 0.0 0.00 0.00 0.00 88 1015.6
20260830222845 67 23 0.0 0.0 0.00 0.00 0.00 88 1015.7
20260830221344 68 23 0.0 0.0 0.00 0.00 0.00 87 1015.6
20260830215846 69 23 0.0 0.0 0.00 0.00 0.00 86 1015.5
20260830214344 69 23 0.0 0.0 0.00 0.00 0.00 85 1015.5
20260830212844 70 23 0.0 0.0 0.00 0.00 0.00 83 1015.4
20260830211342 71 23 0.0 0.0 0.00 0.00 0.00 80 1015.4
20260830205840 71 23 0.0 0.0 0.00 0.00 0.00 81 1015.5
20260830204341 71 23 0.0 0.0 0.00 0.00 0.00 79 1015.6
20260830202840 73 23 0.0 0.0 0.00 0.00 0.00 78 1015.8
20260830201342 74 23 0.0 0.0 0.00 0.00 0.00 74 1015.7
20260830200541 75 11 0.0 0.0 0.00 0.00 0.00 73 1015.9
20260830194341 76 355 0.0 0.0 0.00 0.00 0.00 62 1015.8
20260830192840 76 57 0.0 0.0 0.00 0.00 0.00 62 1016.2
20260830191340 76 119 0.0 0.0 0.00 0.00 0.00 59 1016.3
20260830185841 75 260 0.0 0.0 0.00 0.00 0.00 65 1016.4
20260830184338 72 5 0.0 0.0 0.00 0.00 0.00 76 1016.7
20260830182839 71 236 0.0 0.0 0.00 0.00 0.00 83 1016.9
20260830181340 70 236 0.0 0.0 0.00 0.00 0.00 83 1017.1
20260830175838 69 236 0.0 0.0 0.00 0.00 0.00 85 1017.2
20260830174339 68 236 0.0 0.0 0.00 0.00 0.00 87 1017.5
20260830172837 68 235 0.0 0.0 0.00 0.00 0.00 88 1017.8
20260830171936 67 236 0.0 0.0 0.00 0.00 0.00 89 1018.1
20260830171348 67 236 0.0 0.0 0.00 0.00 0.00 89 1018.0
20260830164332 66 236 0.0 0.0 0.00 0.00 0.00 91 1018.4
20260830162833 65 236 0.0 0.0 0.00 0.00 0.00 92 1018.5
20260830161332 65 236 0.0 0.0 0.00 0.00 0.00 92 1018.6
20260830155830 65 236 0.0 0.0 0.00 0.00 0.00 92 1018.8
20260830154330 65 236 0.0 0.0 0.00 0.00 0.00 91 1019.1
20260830152825 65 236 0.0 0.0 0.00 0.00 0.00 90 1018.2
20260830151327 65 236 0.0 0.0 0.00 0.00 0.00 90 1018.6
20260830150536 65 236 0.0 0.0 0.00 0.00 0.00 90 1019.0
20260830144322 65 236 0.0 0.0 0.00 0.00 0.00 89 1018.7
20260830142820 65 236 0.0 0.0 0.00 0.00 0.00 89 1018.7
20260830142018 64 236 0.0 0.0 0.00 0.00 0.00 89 1018.6
20260830140521 63 236 0.0 0.0 0.00 0.00 0.00 91 1018.6
20260830135015 62 236 0.0 0.0 0.00 0.00 0.00 90 1018.6
20260830132821 62 236 0.0 0.0 0.00 0.00 0.00 89 1018.6
20260830131322 60 236 0.0 0.0 0.00 0.00 0.00 94 1018.8
20260830125821 59 236 0.0 0.0 0.00 0.00 0.00 93 1018.5
20260830124320 58 236 0.0 0.0 0.00 0.00 0.00 96 1018.6
20260830122819 57 236 0.0 0.0 0.00 0.00 0.00 97 1018.8
20260830121317 56 236 0.0 0.0 0.00 0.00 0.00 98 1018.9
20260830115819 55 236 0.0 0.0 0.00 0.00 0.00 98 1018.7
20260830115013 55 236 0.0 0.0 0.00 0.00 0.00 98 1018.9
20260830112818 54 236 0.0 0.0 0.00 0.00 0.00 98 1019.1
20260830111317 53 236 0.0 0.0 0.00 0.00 0.00 98 1019.0
20260830110513 53 236 0.0 0.0 0.00 0.00 0.00 97 1019.0
20260830104317 53 236 0.0 0.0 0.00 0.00 0.00 97 1019.0
20260830102816 53 236 0.0 0.0 0.00 0.00 0.00 97 1018.9
20260830101314 53 236 0.0 0.0 0.00 0.00 0.00 97 1019.2
20260830095814 53 236 0.0 0.0 0.00 0.00 0.00 97 1019.1
20260830094314 53 236 0.0 0.0 0.00 0.00 0.00 97 1019.2
20260830092812 53 236 0.0 0.0 0.00 0.00 0.00 97 1019.1
20260830091312 53 236 0.0 0.0 0.00 0.00 0.00 97 1019.3
20260830085811 52 236 0.0 0.0 0.00 0.00 0.00 97 1019.3
20260830084309 52 236 0.0 0.0 0.00 0.00 0.00 97 1019.2
20260830082809 52 236 0.0 0.0 0.00 0.00 0.00 97 1019.4
20260830081305 52 236 0.0 0.0 0.00 0.00 0.00 97 1019.5
20260830075803 52 236 0.0 0.0 0.00 0.00 0.00 97 1019.5
20260830074303 52 236 0.0 0.0 0.00 0.00 0.00 97 1019.6
20260830072801 52 236 0.0 0.0 0.00 0.00 0.00 97 1019.6
20260830071300 52 236 0.0 0.0 0.00 0.00 0.00 96 1019.5
20260830065757 52 236 0.0 0.0 0.00 0.00 0.00 97 1019.5
20260830064948 52 236 0.0 0.0 0.00 0.00 0.00 97 1019.6
20260830062758 52 236 0.0 0.0 0.00 0.00 0.00 96 1019.7
20260830061257 52 236 0.0 0.0 0.00 0.00 0.00 96 1020.0
20260830055755 52 236 0.0 0.0 0.00 0.00 0.00 96 1020.1
20260830054253 52 236 0.0 0.0 0.00 0.00 0.00 96 1020.1
20260830052754 52 236 0.0 0.0 0.00 0.00 0.00 96 1020.1
20260830051254 52 236 0.0 0.0 0.00 0.00 0.00 96 1020.2
20260830045752 52 236 0.0 0.0 0.00 0.00 0.00 96 1020.3
20260830044251 52 219 0.0 0.0 0.00 0.00 0.00 96 1020.3
20260830042748 52 219 0.0 0.0 0.00 0.00 0.00 95 1020.2